This demonstration page uses our WeatherBlox Daily Observations layout. Learn more.

Left ArrowRight Arrow

30.21309, -93.2044

Hourly Observations for August 28, 2020

Temp ( °F °C ) Dew Point ( °F °C ) Humidity (%) Winds ( mph kmh ) Pressure ( in mb ) Visibility ( mi km ) Precip ( " mm )
12:20 am 00:20 Partly Cloudy 81 27.4 79 26.1 93 93 S 7 11 29.87 1011 10 16 0.00 0.00
12:30 am 00:30 Mostly Cloudy 81 27.4 79 26.2 93 93 S 7 11 29.87 1011 10 16 0.00 0.00
1:15 am 01:15 Clear 81 27.4 80 26.4 94 94 S 6 9 29.87 1011 10 16 0.00 0.00
1:35 am 01:35 Clear 82 27.7 80 26.4 93 93 S 7 11 29.87 1011 10 16 0.00 0.00
2:00 am 02:00 Clear 82 27.8 79 26.2 91 91 SSW 6 9 29.87 1011 10 16 0.00 0.00
2:15 am 02:15 Partly Cloudy 82 27.9 79 26.2 91 91 SSW 6 9 29.87 1011 10 16 0.00 0.00
2:35 am 02:35 Partly Cloudy 82 27.6 79 26.2 92 92 S 8 13 29.87 1011 10 16 0.00 0.00
2:55 am 02:55 Partly Cloudy 82 27.7 80 26.4 93 93 S 9 15 29.87 1011 10 16 0.00 0.00
3:15 am 03:15 Mostly Cloudy 82 27.9 80 26.5 92 92 S 8 13 29.87 1011 10 16 0.00 0.00
3:35 am 03:35 Cloudy 82 28 80 26.6 92 92 S 8 13 29.87 1011 10 16 0.00 0.00
3:55 am 03:55 Cloudy 82 27.9 80 26.7 93 93 S 7 11 29.87 1011 7 11 0.00 0.00
4:15 am 04:15 Cloudy 83 28.1 80 26.8 93 93 SSW 9 15 29.87 1011 7 11 0.00 0.00
4:35 am 04:35 Mostly Cloudy 82 28 80 26.7 93 93 S 8 13 29.87 1011 7 11 0.00 0.00
4:55 am 04:55 Mostly Cloudy with Mist and Fog 82 27.9 80 26.7 93 93 S 9 15 29.86 1011 7 11 0.00 0.00
5:15 am 05:15 Mostly Cloudy with Mist and Fog 83 28.1 80 26.7 92 92 S 10 17 29.86 1011 7 11 0.00 0.00
5:35 am 05:35 Mostly Cloudy with Mist and Fog 83 28.1 80 26.8 93 93 S 8 13 29.86 1011 5 8 0.00 0.00
8:00 am 08:00 Mostly Cloudy 84 29 81 27 89 89 S 8 13 29.90 1013 10 16 0.00 0.00
8:55 am 08:55 Mostly Cloudy 79 26 75 24 89 89 SSW 8 13 29.93 1014 10 16 0.00 0.00
9:51 am 09:51 Cloudy with Light Rain 82 28 75 24 79 79 WSW 12 19 29.93 1014 6 10 0.00 0.00
10:55 am 10:55 Cloudy with Light Rain 81 27 77 25 89 89 NNW 7 11 29.95 1014 6 10 0.00 0.00
11:45 am 11:45 Mostly Cloudy with Light Rain 79 26 75 24 89 89 SW 12 19 29.94 1014 7 11 0.00 0.00
12:52 pm 12:52 Mostly Cloudy with Light Rain 75 24 73 23 94 94 Calm 29.96 1015 6 10 0.00 0.00
1:51 pm 13:51 Mostly Cloudy with Light Rain 75 24 73 23 94 94 SE 7 11 29.94 1014 7 11 0.00 0.00
2:55 pm 14:55 Mostly Cloudy 79 26 75 24 89 89 SE 6 9 29.90 1013 10 16 0.00 0.00
3:45 pm 15:45 Mostly Cloudy 79 26 75 24 89 89 SW 5 7 29.89 1012 10 16 0.00 0.00
4:45 pm 16:45 Partly Cloudy 82 28 77 25 84 84 SSW 9 15 29.87 1011 10 16 0.00 0.00
5:46 pm 17:46 Mostly Sunny 81 27 79 26 94 94 S 6 9 29.86 1011 10 16 0.00 0.00
6:55 pm 18:55 Mostly Sunny 81 27 79 26 94 94 SSE 5 7 29.87 1011 10 16 0.00 0.00
7:54 pm 19:54 Mostly Clear 81 27 79 26 94 94 SE 5 7 29.87 1011 10 16 0.00 0.00
8:50 pm 20:50 Mostly Clear 81 27 79 26 94 94 SSE 8 13 29.87 1011 10 16 0.00 0.00
10:15 pm 22:15 Clear 81 27 79 26.3 96 96 S 6 9 29.90 1013 10 16 0.00 0.00
10:35 pm 22:35 Clear 80 26.7 79 26.1 97 97 SSE 5 7 29.90 1013 10 16 0.00 0.00
10:55 pm 22:55 Mostly Cloudy 81 27.1 80 26.4 96 96 S 7 11 29.90 1013 10 16 0.00 0.00
11:15 pm 23:15 Mostly Cloudy 81 27.1 79 26.3 95 95 S 7 11 29.90 1013 10 16 0.00 0.00
11:35 pm 23:35 Partly Cloudy 81 27.1 79 26.3 95 95 SSE 8 13 29.90 1013 10 16 0.00 0.00
11:55 pm 23:55 Clear 81 27 79 26.3 96 96 S 7 11 29.90 1013 10 16 0.00 0.00

Powered by AerisWeather